STARLINK D (44238 NORAD) Tracking and Keplerian Element Data

This shows tracking and keplerian element data for the satellite.

Feedback or suggestion? Click here.




ElementValue
Catalog44238
NameSTARLINK D
Epoch Orbit303
Epoch Day173.89848618
Epoch Year2019
RAAN37.717
Inclination52.9993
Eccentricity0.0002403
Argument of Perigee92.4702
Mean Anonmoly267.6561
Mean Motion15.05432184
Decay Rate1.443E-05
L11 44238U 19029D 19173.89848618 .00001443 00000-0 11866-3 0 9992
L22 44238 52.9993 37.7170 0002403 92.4702 267.6561 15.05432184 3030

Live tracking and technical data element details for STARLINK D (NORAD 44238). STARLINK D can be tracked NOW for your location showing map with azimuth and elevation plus other details from your city location.

Track the satellite on the map from your city or location and see movement details for azimuth, elevation, latitude, longitude, range, height, and movement on the map or in text.







IsCatalogInMostPopularTable: catalog: 44238, numindb: 44
Update: records affected: 1



GetName: 44238 STARLINK D

Hit Count: updated at: Mon, 22 Jul 2019 04:21:35 GMT